sat.trackr.live / text

‹ back to catalog

STARLINK-5122

NORAD 54179 · 2022-141Y

PAYLOAD ACTIVE UNKNOWN

§ Identity

Operator
Country
US
Launch date
2022-10-28
Launch site
AFWTR
Launch vehicle
Mass (kg)
RCS (m²)

Purposes: comms

External: N2YO · Heavens-Above · Gunter

§ Orbital elements

Epoch: 2026-09-20T01:50:33.175104Z

Period
93.85 min
Inclination
53.1589°
Eccentricity
0.0001277
Mean motion
15.34386076 rev/d
Perigee alt
461.9 km
Apogee alt
463.6 km
Semi-major
6,840.9 km
B*
9.3197e-6
RAAN
195.3737°
Arg perigee
83.5833°
Mean anomaly
276.5315°
Rev number
21,542

§ Raw data

STARLINK-51221 54179U 22141Y   26263.07677286 -.00000061  00000+0  93197-5 0  99992 54179  53.1589 195.3737 0001277  83.5833 276.5315 15.34386076215427

JSON: /api/v1/satellites/54179 · /tle

For live sub-satellite position, see the globe view (requires WebGL).

§ Visibility from observer

Set your observer location to see the next 7 days of passes ≥ 10°. The values pass through the URL so the page stays shareable.

No JS? Fill the form by hand. The geolocation button needs JavaScript.